Leadville, CO

7:12 PM MST on December 15, 2019 (GMT -0700)
Lake County

Weather History for KLXV - November, 2019

Change the Weather History Date:

Wednesday, November 20, 2019

  Actual Average Record
Temperature  
Mean Temperature 29 °F -  
Max Temperature 34 °F 35 °F 61 °F (1989)
Min Temperature 23 °F 10 °F -9 °F (1985)
Degree Days  
Heating Degree Days 36 43  
Month to date heating degree days 683 770  
Since 1 July heating degree days 2751 2959  
Cooling Degree Days 0 0  
Month to date cooling degree days 0 0  
Year to date cooling degree days 0 0  
Moisture  
Dew Point 25 °F    
Average Humidity 74    
Maximum Humidity 92    
Minimum Humidity 55    
Precipitation  
Precipitation 0.15 in 0.02 in 0.55 in (1977)
Month to date precipitation 0.17 0.53  
Year to date precipitation 14.23 11.47  
Sea Level Pressure  
Sea Level Pressure 29.75 in    
Wind  
Wind Speed 2 mph (SSW)    
Max Wind Speed 15 mph    
Max Gust Speed 18 mph    
Visibility 6 miles    
Events Fog , Snow    
T = Trace of Precipitation, MM = Missing Value Source: NWS Daily Summary

Daily Weather History Graph

Daily Weather History Graph

Search for Another Location

Airport or City:

Astronomy

Nov. 20, 2019 Rise Set
Actual Time 6:54 AM MST 4:47 PM MST
Civil Twilight 6:25 AM MST 5:16 PM MST
Nautical Twilight 5:52 AM MST 5:48 PM MST
Astronomical Twilight 5:20 AM MST 6:20 PM MST
Moon No Moon Rise 1:41 PM MST (11/20)
Length of Visible Light 10h 51m
Length of Day
9h 53m
Last Quarter, 40% of the Moon is Illuminated
Nov 20
Last Quarter
Nov 26
New
Dec 3
First Quarter
Dec 11
Full
Dec 18
Last Quarter

Hourly Weather History & Observations

Time (MST) Temp. Windchill Dew Point Humidity Pressure Visibility Wind Dir Wind Speed Gust Speed Precip Events Conditions
12:53 AM 27.0 °F 20.5 °F 16.0 °F 63% 29.57 in 10.0 mi NW 5.8 mph - N/A   Scattered Clouds
1:53 AM 27.0 °F - 15.1 °F 61% 29.56 in 10.0 mi Calm Calm - N/A   Clear
2:53 AM 24.1 °F - 15.1 °F 69% 29.56 in 10.0 mi Calm Calm - N/A   Partly Cloudy
3:53 AM 25.0 °F - 17.1 °F 72% 29.55 in 10.0 mi Calm Calm - N/A   Mostly Cloudy
4:53 AM 24.1 °F 18.2 °F 16.0 °F 71% 29.57 in 10.0 mi ENE 4.6 mph - N/A   Clear
5:53 AM 26.1 °F 21.9 °F 18.0 °F 71% 29.61 in 10.0 mi East 3.5 mph - N/A   Scattered Clouds
6:53 AM 30.0 °F 25.2 °F 19.0 °F 64% 29.60 in 10.0 mi East 4.6 mph - N/A   Overcast
7:53 AM 27.0 °F 23.0 °F 19.9 °F 75% 29.66 in 10.0 mi ENE 3.5 mph - N/A   Overcast
8:53 AM 30.9 °F - 21.9 °F 69% 29.65 in 10.0 mi Calm Calm - N/A   Overcast
9:53 AM 34.0 °F - 21.0 °F 59% 29.65 in 10.0 mi Calm Calm - N/A   Overcast
10:53 AM 33.1 °F - 21.9 °F 64% 29.64 in 6.0 mi Calm Calm - 0.00 in   Haze
11:34 AM 28.9 °F 19.8 °F 26.1 °F 89% 29.81 in 2.5 mi SSW 10.4 mph - 0.00 in Snow Light Snow
11:36 AM 28.9 °F 21.1 °F 26.1 °F 89% 29.81 in 1.8 mi South 8.1 mph - 0.00 in Snow Light Snow
11:53 AM 28.9 °F 25.2 °F 26.1 °F 89% 29.62 in 0.5 mi SW 3.5 mph - 0.01 in Fog , Snow Snow
12:06 PM 28.9 °F - 26.1 °F 89% 29.79 in 0.2 mi Calm Calm - 0.01 in Fog , Snow Snow
12:53 PM 28.9 °F - 27.0 °F 92% 29.62 in 0.5 mi Calm Calm - 0.05 in Fog , Snow Snow
1:13 PM 28.9 °F 25.2 °F 27.0 °F 92% 29.78 in 0.5 mi South 3.5 mph - 0.02 in Fog , Snow Snow
1:32 PM 28.9 °F 25.2 °F 27.0 °F 92% 29.79 in 1.0 mi SSW 3.5 mph - 0.03 in Snow Light Snow
1:53 PM 30.0 °F 26.5 °F 27.0 °F 88% 29.61 in 0.5 mi WNW 3.5 mph - 0.04 in Fog , Snow Light Snow
2:11 PM 28.9 °F - 27.0 °F 92% 29.80 in 0.2 mi Calm Calm - 0.01 in Fog , Snow Snow
2:32 PM 30.0 °F - 28.0 °F 92% 29.80 in 0.5 mi Calm Calm - 0.03 in Fog , Snow Light Snow
2:40 PM 30.0 °F - 28.0 °F 92% 29.80 in 1.0 mi Calm Calm - 0.03 in Snow Light Snow
2:50 PM 30.2 °F - 28.4 °F 93% 29.80 in 3.0 mi Calm Calm - 0.03 in Snow Light Snow
2:53 PM 30.9 °F 27.5 °F 28.0 °F 89% 29.64 in 4.0 mi WNW 3.5 mph - 0.03 in Snow Light Snow
3:12 PM 32.0 °F - 28.4 °F 87% 29.81 in 10.0 mi Calm Calm - N/A   Scattered Clouds
3:53 PM 30.0 °F 26.5 °F 27.0 °F 88% 29.65 in 10.0 mi West 3.5 mph - 0.00 in   Scattered Clouds
4:17 PM 28.9 °F 23.9 °F 27.0 °F 92% 29.82 in 1.8 mi West 4.6 mph - N/A   Mostly Cloudy
4:53 PM 28.9 °F - 27.0 °F 92% 29.68 in 10.0 mi Calm Calm - N/A   Overcast
5:53 PM 30.0 °F 25.2 °F 28.0 °F 92% 29.70 in 10.0 mi South 4.6 mph - N/A   Overcast
6:08 PM 30.0 °F 26.5 °F 28.0 °F 92% 29.87 in 10.0 mi South 3.5 mph - N/A   Overcast
6:18 PM 30.0 °F 25.2 °F 27.0 °F 88% 29.87 in 10.0 mi South 4.6 mph - N/A   Overcast
6:27 PM 30.0 °F - 28.0 °F 92% 29.87 in 10.0 mi Calm Calm - N/A   Overcast
6:53 PM 30.0 °F 26.5 °F 27.0 °F 88% 29.69 in 10.0 mi West 3.5 mph - N/A   Overcast
7:31 PM 28.9 °F - 27.0 °F 92% 29.87 in 10.0 mi Calm Calm - N/A   Overcast
7:53 PM 30.0 °F - 27.0 °F 88% 29.71 in 10.0 mi Calm Calm - N/A   Overcast
8:00 PM 30.0 °F - 27.0 °F 88% 29.89 in 10.0 mi Calm Calm - N/A   Overcast
8:53 PM 30.0 °F - 28.0 °F 92% 29.70 in 5.0 mi Calm Calm - 0.01 in Snow Light Snow
8:59 PM 30.0 °F - 28.0 °F 92% 29.90 in 1.8 mi Calm Calm - 0.00 in Snow Light Snow
9:15 PM 30.0 °F - 28.0 °F 92% 29.90 in 0.8 mi Calm Calm - 0.01 in Snow Light Snow
9:21 PM 30.0 °F - 28.0 °F 92% 29.90 in 1.2 mi Calm Calm - 0.01 in Snow Light Snow
9:51 PM 28.4 °F - 26.6 °F 93% 29.90 in 5.0 mi Calm Calm - 0.01 in Snow Light Snow
9:53 PM 28.9 °F - 27.0 °F 92% 29.68 in 6.0 mi Calm Calm - 0.01 in   Mostly Cloudy
10:13 PM 28.9 °F - 27.0 °F 92% 29.90 in 5.0 mi Calm Calm - N/A   Overcast
10:53 PM 30.0 °F 26.5 °F 28.0 °F 92% 29.70 in 2.5 mi South 3.5 mph - N/A   Overcast
11:07 PM 30.0 °F 22.4 °F 28.0 °F 92% 29.93 in 1.2 mi South 8.1 mph - N/A   Overcast
11:28 PM 28.9 °F - 27.0 °F 92% 29.93 in 10.0 mi Calm Calm - N/A   Overcast
11:40 PM 28.9 °F 23.9 °F 27.0 °F 92% 29.92 in 10.0 mi NNE 4.6 mph - N/A   Overcast
11:53 PM 30.0 °F - 28.0 °F 92% 29.73 in 10.0 mi Calm Calm - N/A   Overcast